Location: ??
(35.4627°N, 139.3695°E)
Time: 05:34:54
(UTC+00:00)

Lacrosse 5 - Pass Details

Date: 25 November 2020
Orbit: 713 x 726 km, 57.0° (Epoch: 18 January)

Event Time Altitude Azimuth Distance (km) Brightness Sun altitude
Exits shadow 19:27:09 28° 201° (SSW) 1,308 3.1 -24.4°
Maximum altitude 19:29:42 66° 127° (SE) 776 2.1 -23.9°
Drops below altitude 10° 19:34:42 10° 46° (NE) 2,191 4.8 -22.9°
Sets 19:37:05 0° 43° (NE) 3,114 5.6 -22.4°
